If you wish to contribute or participate in the discussions about articles you are invited to join SKYbrary as a registered user

 Actions

Annaba/Rabah Bitat

From SKYbrary Wiki

DABB
Airport
ICAO: DABB
Summary
Name Annaba/Rabah Bitat
Region Africa
Territory Algeria DZ.gif
Location Annaba
Serving
Coordinates 36° 49' 19.9992", 7° 48' 33.9984"
Runways
Designator Length Width Surface ROPS
1/19 3000 m9,842.52 ft 45 m147.638 ft ASP yes/yes
5/23 2290 m7,513.123 ft 45 m147.638 ft ASP yes/yes


METAR
Observation DABB 250900Z 21005KT 9000 FEW023CB FEW026TCU SCT033 10/08 Q1009
Station Annaba
Date/Time 25 February 2018 09:00:00
Wind direction 210°
Wind speed 05 kts
Lowest cloud amount few clouds
Temperature 10°C
Dew point 8°C
Humidity 87%
QNH 1009 hPa
Weather condition n/a

Annaba/Rabah Bitat Airport

ICAO: DABB IATA: AAE

Description

Rabah Bitat Airport, formerly known as Les Salines Airport, and popularly as El Mellah Airport is an international airport located 9 km south of Annaba, a city in Algeria.

Climatology

Maps

Terrain

Loading map...

Airport Layout

Loading map...


Accidents & Serious Incidents at or in vicinity of DABB

None on SKYbrary